�N����,����,�~����,�C��,���x,�C��,����,���ϕ���,�ő�u�ԕ���,�ő厞����,���˗�,�I�_���x,�n�����x,�ő啗���N��,DTYPE
"19/09/29","00:10",0.0,22.8,86.8,1012.8,300.4,0.8,1.4,300.7,0.00,20.5,23.6,"00:08:48",1
"19/09/29","00:20",0.0,22.9,86.7,1013.0,317.7,1.0,1.4,323.4,0.00,20.6,23.4,"00:10:16",1
"19/09/29","00:30",0.0,22.9,87.0,1013.5,310.9,1.0,1.8,336.4,0.00,20.7,23.5,"00:22:32",1
"19/09/29","00:40",0.0,22.8,87.2,1013.0,295.3,0.7,1.0,305.1,0.00,20.6,23.4,"00:34:40",1
"19/09/29","00:50",0.0,22.7,87.3,1012.8,315.7,0.8,1.1,321.8,0.00,20.5,23.4,"00:46:16",1
"19/09/29","01:00",0.0,22.6,87.3,1013.0,307.6,0.8,1.0,307.3,0.00,20.4,23.5,"00:52:00",1
"19/09/29","01:10",0.0,22.6,87.4,1012.8,305.8,0.8,1.3,326.3,0.00,20.4,23.5,"01:05:36",1
"19/09/29","01:20",0.0,22.6,87.4,1013.3,299.8,0.7,1.2,320.5,0.00,20.4,23.3,"01:10:24",1
"19/09/29","01:30",0.0,22.7,87.3,1013.3,316.0,1.0,1.7,330.7,0.00,20.5,23.5,"01:24:24",1
"19/09/29","01:40",0.0,22.6,87.3,1013.0,309.1,1.0,1.3,323.0,0.00,20.4,23.5,"01:36:32",1
"19/09/29","01:50",0.0,22.6,87.6,1013.0,302.8,0.8,1.2,308.7,0.00,20.5,23.6,"01:49:44",1
"19/09/29","02:00",0.0,22.6,88.0,1013.0,296.9,0.6,1.1,314.2,0.00,20.6,23.4,"01:50:16",1
"19/09/29","02:10",0.0,22.5,88.0,1012.6,313.0,1.0,1.6,323.8,0.00,20.5,23.3,"02:07:44",1
"19/09/29","02:20",0.0,22.5,88.1,1012.3,304.4,0.8,1.3,318.7,0.00,20.5,23.3,"02:11:12",1
"19/09/29","02:30",0.0,22.5,88.5,1012.6,310.0,0.6,0.9,311.3,0.00,20.5,23.1,"02:23:28",1
"19/09/29","02:40",0.0,22.2,88.7,1012.3,301.6,0.8,1.0,307.8,0.00,20.3,23.5,"02:32:16",1
"19/09/29","02:50",0.0,22.3,89.1,1012.3,319.2,1.2,1.7,320.4,0.00,20.5,23.2,"02:48:08",1
"19/09/29","03:00",0.0,22.3,89.3,1012.1,315.1,0.8,1.6,330.1,0.00,20.5,23.2,"02:51:04",1
"19/09/29","03:10",0.0,22.1,89.2,1012.1,322.4,1.1,1.6,325.3,0.00,20.3,23.3,"03:03:36",1
"19/09/29","03:20",0.0,21.9,89.9,1012.1,325.2,1.3,1.7,323.9,0.00,20.2,23.2,"03:15:44",1
"19/09/29","03:30",0.0,21.5,90.0,1011.4,302.4,0.7,1.3,329.2,0.00,19.8,23.0,"03:20:16",1
"19/09/29","03:40",0.0,21.3,91.1,1011.9,325.2,1.1,1.9,334.9,0.00,19.8,23.0,"03:39:20",1
"19/09/29","03:50",0.0,21.2,91.0,1011.9,306.4,1.0,1.7,316.3,0.00,19.7,23.1,"03:42:48",1
"19/09/29","04:00",0.0,21.0,91.4,1011.6,316.8,1.0,1.3,322.9,0.00,19.6,23.1,"03:56:56",1
"19/09/29","04:10",0.0,20.9,92.1,1011.9,325.4,1.1,1.4,323.4,0.00,19.6,23.1,"04:05:44",1
"19/09/29","04:20",0.0,20.8,92.1,1011.4,307.3,0.6,1.3,314.2,0.00,19.5,22.9,"04:10:24",1
"19/09/29","04:30",0.0,20.7,92.4,1011.4,310.9,0.5,0.8,300.9,0.00,19.5,22.9,"04:21:12",1
"19/09/29","04:40",0.0,20.6,92.7,1011.6,306.7,0.8,1.1,311.8,0.00,19.4,22.9,"04:31:20",1
"19/09/29","04:50",0.0,20.8,92.9,1011.6,312.5,0.7,1.3,320.4,0.00,19.6,22.7,"04:47:36",1
"19/09/29","05:00",0.0,20.8,93.1,1011.4,320.0,1.0,1.6,322.4,0.00,19.7,22.8,"04:58:08",1
"19/09/29","05:10",0.0,20.8,93.0,1011.4,314.9,1.0,1.3,318.7,0.00,19.7,22.9,"05:02:00",1
"19/09/29","05:20",0.0,20.8,93.3,1011.6,310.4,1.0,1.4,324.4,0.00,19.7,22.7,"05:13:36",1
"19/09/29","05:30",0.0,20.7,93.4,1011.6,311.1,0.8,1.7,323.0,0.00,19.6,22.6,"05:26:24",1
"19/09/29","05:40",0.0,20.6,93.2,1011.4,317.0,1.2,1.6,320.2,0.00,19.5,22.9,"05:31:28",1
"19/09/29","05:50",0.0,20.6,93.5,1012.1,326.1,1.3,1.7,328.1,0.00,19.6,22.7,"05:46:40",1
"19/09/29","06:00",0.0,20.6,94.0,1011.9,314.5,1.0,1.3,322.9,0.00,19.6,22.7,"05:51:52",1
"19/09/29","06:10",0.0,20.6,93.8,1012.1,320.3,1.0,1.3,327.4,0.00,19.6,22.6,"06:04:56",1
"19/09/29","06:20",0.0,20.5,94.0,1011.6,324.3,1.0,1.3,317.1,0.00,19.5,22.7,"06:10:08",1
"19/09/29","06:30",0.0,20.5,94.0,1012.1,319.7,1.1,1.3,320.1,0.00,19.5,22.6,"06:21:52",1
"19/09/29","06:40",0.0,20.5,94.2,1011.9,301.7,0.8,1.3,314.0,0.00,19.6,22.6,"06:33:04",1
"19/09/29","06:50",0.0,20.8,94.2,1011.9,294.6,1.1,1.8,313.7,0.00,19.9,22.6,"06:48:24",1
"19/09/29","07:00",0.0,21.0,93.8,1012.1,315.7,1.1,1.8,321.3,0.00,20.0,22.5,"06:50:40",1
"19/09/29","07:10",0.0,21.2,94.1,1011.9,319.3,1.1,1.7,322.9,0.01,20.3,22.4,"07:01:12",1
"19/09/29","07:20",0.0,21.4,93.7,1011.9,310.3,1.1,1.6,322.7,0.02,20.4,22.4,"07:19:20",1
"19/09/29","07:30",0.0,21.6,93.7,1012.1,313.6,1.1,1.6,315.3,0.03,20.6,22.6,"07:21:44",1
"19/09/29","07:40",0.0,21.9,93.1,1012.1,299.1,0.8,1.4,306.5,0.05,20.8,22.7,"07:30:24",1
"19/09/29","07:50",0.0,22.6,91.9,1011.9,310.1,0.7,1.4,335.0,0.07,21.3,22.9,"07:41:44",1
"19/09/29","08:00",0.0,23.4,90.5,1011.9,283.5,0.6,0.9,250.1,0.09,21.8,23.0,"07:54:56",1
"19/09/29","08:10",0.0,23.9,87.1,1011.6,308.6,0.8,1.4,335.9,0.09,21.7,22.9,"08:01:12",1
"19/09/29","08:20",0.0,24.4,84.0,1012.1,290.0,0.8,1.6,331.5,0.10,21.6,23.1,"08:11:52",1
"19/09/29","08:30",0.0,24.8,81.1,1011.6,296.6,0.7,1.3,326.3,0.11,21.4,23.2,"08:24:08",1
"19/09/29","08:40",0.0,25.2,79.6,1011.4,317.3,0.5,1.7,331.0,0.17,21.5,23.3,"08:32:00",1
"19/09/29","08:50",0.0,25.9,77.3,1010.9,163.4,0.5,1.2,59.0,0.27,21.7,23.5,"08:42:16",1
"19/09/29","09:00",0.0,25.8,75.4,1010.9,184.6,0.7,2.0,204.4,0.24,21.2,23.6,"08:54:08",1
"19/09/29","09:10",0.0,26.3,74.8,1010.2,103.8,0.7,2.2,109.8,0.21,21.5,23.9,"09:06:24",1
"19/09/29","09:20",0.0,26.1,74.6,1010.0,133.1,0.7,2.1,94.9,0.19,21.3,24.1,"09:18:32",1
"19/09/29","09:30",0.0,26.0,73.6,1010.0,86.8,0.7,2.2,113.6,0.15,21.0,24.2,"09:26:24",1
"19/09/29","09:40",0.0,26.8,72.4,1010.2,116.4,0.6,2.2,105.5,0.30,21.5,24.3,"09:38:24",1
"19/09/29","09:50",0.0,27.1,70.1,1010.4,111.2,0.7,2.0,141.2,0.36,21.2,24.6,"09:48:32",1
"19/09/29","10:00",0.0,27.4,71.2,1010.9,158.5,0.7,1.7,132.7,0.38,21.8,24.8,"09:54:08",1
"19/09/29","10:10",0.0,27.7,70.0,1011.2,92.3,0.6,1.8,338.5,0.39,21.8,24.8,"10:01:04",1
"19/09/29","10:20",0.0,27.9,68.8,1011.2,79.7,1.1,2.5,111.2,0.40,21.7,25.4,"10:19:28",1
"19/09/29","10:30",0.0,27.8,68.2,1011.2,104.3,1.5,2.9,114.2,0.42,21.4,25.6,"10:26:24",1
"19/09/29","10:40",0.0,27.7,67.2,1010.9,93.9,1.1,2.5,126.6,0.45,21.1,25.8,"10:39:28",1
"19/09/29","10:50",0.0,28.4,67.2,1010.9,101.0,1.1,2.7,100.5,0.46,21.8,25.9,"10:41:44",1
"19/09/29","11:00",0.0,28.5,66.2,1011.4,119.9,1.3,2.9,184.8,0.48,21.6,26.2,"10:50:40",1
"19/09/29","11:10",0.0,29.0,64.4,1011.2,98.0,1.2,2.1,123.8,0.47,21.6,26.5,"11:03:36",1
"19/09/29","11:20",0.0,29.5,64.4,1011.2,165.8,1.1,2.6,211.0,0.51,22.1,26.9,"11:15:28",1
"19/09/29","11:30",0.0,29.3,62.1,1011.4,110.4,1.1,2.1,120.4,0.46,21.3,26.9,"11:20:32",1
"19/09/29","11:40",0.0,29.4,62.1,1010.9,22.7,1.2,2.6,358.8,0.51,21.4,27.2,"11:31:04",1
"19/09/29","11:50",0.0,30.2,61.2,1011.2,72.4,0.8,2.4,174.7,0.52,21.9,27.4,"11:49:20",1
"19/09/29","12:00",0.0,29.5,62.3,1011.2,153.6,1.7,3.7,213.1,0.50,21.6,27.7,"11:54:56",1
"19/09/29","12:10",0.0,30.0,61.7,1010.9,171.9,1.8,4.1,213.9,0.48,21.9,27.7,"12:06:56",1
"19/09/29","12:20",0.0,30.0,61.1,1010.4,204.0,2.1,4.5,209.7,0.50,21.7,28.2,"12:12:56",1
"19/09/29","12:30",0.0,30.4,60.0,1010.2,184.2,1.8,3.7,190.5,0.54,21.8,28.2,"12:26:16",1
"19/09/29","12:40",0.0,30.3,58.5,1010.4,173.2,1.6,4.5,222.2,0.47,21.3,28.3,"12:36:32",1
"19/09/29","12:50",0.0,30.3,60.3,1010.4,193.8,1.3,4.5,210.1,0.37,21.8,28.4,"12:42:00",1
"19/09/29","13:00",0.0,30.3,58.5,1010.0,200.9,2.0,3.7,230.5,0.42,21.3,28.4,"12:58:40",1
"19/09/29","13:10",0.0,30.5,57.9,1009.7,191.0,1.8,4.0,210.2,0.55,21.3,28.6,"13:08:40",1
"19/09/29","13:20",0.0,30.5,57.5,1009.5,205.6,2.0,3.6,217.7,0.45,21.2,28.6,"13:13:36",1
"19/09/29","13:30",0.0,31.1,56.9,1009.5,204.3,1.3,3.6,153.2,0.53,21.6,28.7,"13:28:32",1
"19/09/29","13:40",0.0,31.4,56.6,1009.7,194.9,1.2,3.3,213.3,0.51,21.8,28.9,"13:30:40",1
"19/09/29","13:50",0.0,30.8,55.7,1009.7,176.9,1.6,3.9,196.5,0.42,21.0,29.2,"13:48:08",1
"19/09/29","14:00",0.0,30.1,58.2,1009.0,209.9,1.1,3.2,217.1,0.16,21.0,29.1,"13:53:20",1
"19/09/29","14:10",0.0,30.0,58.9,1008.8,182.3,1.3,2.4,220.2,0.14,21.1,29.0,"14:05:12",1
"19/09/29","14:20",0.0,30.3,58.7,1008.6,156.6,0.8,2.2,197.2,0.23,21.4,28.8,"14:10:08",1
"19/09/29","14:30",0.0,30.1,59.9,1008.1,235.8,1.0,2.6,226.0,0.13,21.5,28.7,"14:24:00",1
"19/09/29","14:40",0.0,30.1,60.1,1008.1,247.6,0.6,2.1,223.7,0.14,21.5,28.6,"14:38:48",1
"19/09/29","14:50",0.0,29.7,61.3,1007.8,261.2,0.6,1.7,231.5,0.12,21.5,28.6,"14:40:02",1
"19/09/29","15:00",0.0,29.5,65.6,1007.1,303.1,1.1,3.4,3.0,0.17,22.4,28.5,"14:56:40",1
"19/09/29","15:10",0.0,29.2,67.5,1007.1,311.0,1.1,2.4,349.8,0.19,22.6,28.2,"15:06:40",1
"19/09/29","15:20",0.0,29.0,67.1,1007.1,307.1,1.3,3.6,235.8,0.18,22.3,28.2,"15:17:12",1
"19/09/29","15:30",0.0,29.0,66.7,1006.9,293.4,1.0,2.4,312.7,0.17,22.2,28.2,"15:26:40",1
"19/09/29","15:40",0.0,29.0,66.5,1007.1,329.5,1.5,3.4,6.7,0.19,22.2,28.3,"15:37:12",1
"19/09/29","15:50",0.0,29.1,66.5,1006.9,314.6,1.1,2.8,343.6,0.16,22.3,28.3,"15:41:36",1
"19/09/29","16:00",0.0,29.2,68.2,1006.9,291.4,0.7,1.7,278.2,0.12,22.8,27.8,"15:50:40",1
"19/09/29","16:10",0.0,29.3,65.2,1006.7,29.0,1.0,2.0,23.6,0.09,22.1,27.9,"16:02:00",1
"19/09/29","16:20",0.0,29.3,64.2,1006.7,1.4,1.3,3.1,334.3,0.07,21.9,27.9,"16:15:36",1
"19/09/29","16:30",0.0,29.1,65.0,1006.4,333.0,1.1,2.6,339.5,0.06,21.9,27.9,"16:28:56",1
"19/09/29","16:40",0.0,29.0,66.7,1006.0,316.8,0.8,2.1,322.7,0.06,22.2,27.7,"16:31:20",1
"19/09/29","16:50",0.0,28.9,66.4,1006.4,323.1,1.0,1.6,342.6,0.06,22.0,27.5,"16:42:16",1
"19/09/29","17:00",0.0,28.9,66.7,1006.2,339.5,1.5,2.1,349.5,0.06,22.1,27.6,"16:51:28",1
"19/09/29","17:10",0.0,29.1,67.9,1006.0,329.2,1.3,3.3,327.8,0.07,22.6,27.6,"17:05:20",1
"19/09/29","17:20",0.0,28.7,68.6,1006.0,329.0,1.1,1.9,339.2,0.03,22.4,27.3,"17:12:00",1
"19/09/29","17:30",0.0,28.6,70.2,1005.7,282.9,0.6,0.9,248.2,0.01,22.7,27.2,"17:28:32",1
"19/09/29","17:40",0.0,28.4,72.5,1005.7,306.0,0.7,1.7,328.9,0.00,23.0,27.1,"17:38:56",1
"19/09/29","17:50",0.0,28.0,75.0,1006.4,320.1,1.1,2.4,349.9,0.00,23.2,27.1,"17:44:00",1
"19/09/29","18:00",0.0,27.7,76.6,1006.7,331.4,1.2,3.3,347.5,0.00,23.3,26.8,"17:50:02",1
"19/09/29","18:10",0.0,27.0,77.5,1006.9,339.1,2.2,3.7,335.8,0.00,22.8,27.0,"18:06:56",1
"19/09/29","18:20",0.0,26.7,77.6,1007.1,348.7,2.5,5.4,342.2,0.00,22.5,26.8,"18:11:20",1
"19/09/29","18:30",0.0,26.2,79.0,1007.4,328.4,1.7,4.0,318.9,0.00,22.3,26.8,"18:28:24",1
"19/09/29","18:40",0.0,25.8,80.3,1007.1,316.9,1.5,3.7,345.7,0.00,22.2,26.6,"18:34:24",1
"19/09/29","18:50",0.0,25.6,81.1,1007.4,329.9,1.7,3.9,329.8,0.00,22.2,26.3,"18:44:08",1
"19/09/29","19:00",0.0,25.5,82.0,1007.4,306.4,1.2,3.4,337.5,0.00,22.2,26.4,"18:51:04",1
"19/09/29","19:10",0.0,25.4,82.5,1007.6,330.8,1.1,2.9,346.9,0.00,22.2,26.3,"19:05:28",1
"19/09/29","19:20",0.0,25.3,82.9,1007.8,309.3,1.3,2.7,330.0,0.00,22.2,26.2,"19:17:52",1
"19/09/29","19:30",0.0,25.3,83.2,1007.6,273.7,1.1,2.1,243.9,0.00,22.3,26.1,"19:23:28",1
"19/09/29","19:40",0.0,25.3,83.2,1008.1,320.2,1.5,2.9,333.4,0.00,22.3,26.0,"19:38:16",1
"19/09/29","19:50",0.0,25.3,83.6,1008.6,329.2,2.0,3.7,336.5,0.00,22.4,25.9,"19:45:28",1
"19/09/29","20:00",0.0,25.0,84.0,1008.3,338.0,1.7,3.6,337.2,0.00,22.1,25.7,"19:54:48",1
"19/09/29","20:10",0.0,24.9,84.4,1008.6,333.4,2.2,4.1,343.5,0.00,22.1,25.8,"20:09:44",1
"19/09/29","20:20",0.0,24.8,84.3,1008.8,321.9,2.1,4.0,333.1,0.00,22.0,25.7,"20:15:20",1
"19/09/29","20:30",0.0,24.8,83.9,1008.8,326.0,2.5,4.1,336.0,0.00,21.9,25.8,"20:20:48",1
"19/09/29","20:40",0.0,24.8,83.7,1008.8,334.5,1.7,4.1,328.3,0.00,21.9,25.6,"20:30:16",1
"19/09/29","20:50",0.0,24.7,83.6,1009.0,8.9,1.3,2.6,4.9,0.00,21.8,25.4,"20:45:04",1
"19/09/29","21:00",0.0,24.5,83.6,1009.3,349.9,1.0,1.7,343.1,0.00,21.6,25.4,"20:59:12",1
"19/09/29","21:10",0.0,24.6,83.8,1009.3,341.0,1.7,3.3,329.6,0.00,21.7,25.5,"21:08:24",1
"19/09/29","21:20",0.0,24.6,84.0,1009.3,338.5,2.0,3.6,341.4,0.00,21.8,25.3,"21:18:00",1
"19/09/29","21:30",0.0,24.6,84.2,1009.3,339.6,1.6,3.1,328.0,0.00,21.8,25.4,"21:27:44",1
"19/09/29","21:40",0.0,24.4,84.6,1009.3,334.2,2.0,3.5,326.7,0.00,21.7,25.0,"21:36:40",1
"19/09/29","21:50",0.0,24.3,84.7,1009.3,334.0,2.0,4.0,333.3,0.00,21.6,25.3,"21:42:48",1
"19/09/29","22:00",0.0,24.4,84.8,1009.3,332.3,1.8,3.3,323.3,0.00,21.7,25.0,"21:57:44",1
"19/09/29","22:10",0.0,24.3,84.7,1009.5,332.6,2.2,4.1,333.8,0.00,21.6,25.0,"22:00:24",1
"19/09/29","22:20",0.0,24.2,84.5,1009.5,337.6,1.5,3.3,339.9,0.00,21.5,24.7,"22:17:20",1
"19/09/29","22:30",0.0,24.0,84.4,1009.3,343.0,1.7,3.3,345.5,0.00,21.2,24.9,"22:25:36",1
"19/09/29","22:40",0.0,23.9,84.7,1009.5,328.3,2.0,3.7,344.1,0.00,21.2,24.7,"22:30:24",1
"19/09/29","22:50",0.0,23.9,84.6,1009.7,313.0,2.0,3.9,334.8,0.00,21.2,24.8,"22:48:32",1
"19/09/29","23:00",0.0,23.9,84.5,1009.5,338.3,1.6,3.1,331.7,0.00,21.2,24.8,"22:51:44",1
"19/09/29","23:10",0.0,23.8,84.7,1009.5,345.7,1.2,2.6,328.3,0.00,21.1,24.7,"23:05:04",1
"19/09/29","23:20",0.0,23.7,85.2,1009.7,350.5,1.2,2.1,10.5,0.00,21.1,24.9,"23:11:12",1
"19/09/29","23:30",0.0,23.6,85.5,1009.7,336.6,1.7,2.8,357.9,0.00,21.1,24.5,"23:23:28",1
"19/09/29","23:40",0.0,23.5,85.8,1009.7,335.7,2.0,3.4,339.5,0.00,21.0,24.7,"23:34:00",1
"19/09/29","23:50",0.0,23.5,86.1,1009.5,337.3,1.8,3.2,330.7,0.00,21.1,24.5,"23:43:20",1
"19/09/29","24:00",0.0,23.5,86.0,1010.0,335.7,2.0,4.2,344.2,0.00,21.1,24.4,"23:54:32",1
